Regional Weather Roundup
Issued by NWS Charleston, SC

Current Version | Previous Version | Graphics & Text | Print | Product List | Glossary On
Versions: 1 2 3 4 5 6 7 8 9 10 11 12 13 14 15 16 17 18 19 20 21 22 23 24 25 26 27 28 29 30 31 32 33 34 35 36 37 38 39 40 41 42 43 44 45 46 47 48 49 50
000
ASUS42 KCHS 271225
RWRCHS

REGIONAL WEATHER ROUNDUP
NATIONAL WEATHER SERVICE CHARLESTON SC
800 AM EDT WED AUG 27 2014

NOTE: "FAIR" INDICATES FEW OR NO CLOUDS BELOW 12,000 FEET WITH NO
SIGNIFICANT WEATHER AND/OR OBSTRUCTIONS TO VISIBILITY.

NOT ALL STATIONS ARE QUALITY CONTROLLED BY THE NATIONAL
WEATHER SERVICE. USE DATA WITH CAUTION...ESPECIALLY
DEWPOINT OBSERVATIONS.

SCZ027-030-031-034>040-042>050-271300-
...SOUTH CAROLINA...

CITY           SKY/WX    TMP DP  RH WIND       PRES   REMARKS
N CHARLESTON   MOSUNNY   70  64  81 N6        30.02S
6HR MIN TEMP:  65; 6HR MAX TEMP:  72;

WATERFRONT PRK   N/A     72 N/A N/A N13         N/A
FORT JOHNSON   NOT AVBL
MOUNT PLEASANT FAIR      68  64  88 N6        30.02R
JOHNS ISLAND   SUNNY     72  66  83 CALM      30.02S
PINOPOLIS        N/A     73  66  78 NE12      29.96R
MONCKS CORNER    N/A     72  68  88 CALM      30.03S
SUMMERVILLE    FAIR      68  64  88 N3        30.05R
BEAUFORT MCAS  MOSUNNY   71  64  78 NE6       30.03R
6HR MIN TEMP:  68; 6HR MAX TEMP:  73;

BEAUFORT ARPT  FAIR      72  66  83 N6        30.03R
HILTON HEAD IS SUNNY     73  66  78 N7        30.03S
GEORGETOWN     NOT AVBL
WALTERBORO     SUNNY     68 N/A N/A N3        30.06R
ORANGEBURG     SUNNY     67  60  78 N5        30.06R
6HR MIN TEMP:  63; 6HR MAX TEMP:  70;

BARNWELL       FAIR      66  61  82 N6        30.08R
AIKEN          FAIR      66  63  88 CALM      30.12R
MANNING        FAIR      68 N/A N/A N5        30.06R
KINGSTREE      NOT AVBL
COLUMBIA       MOSUNNY   68  59  73 CALM      30.07R
6HR MIN TEMP:  64; 6HR MAX TEMP:  73;

SUMTER         SUNNY     68  62  83 N6        30.05R
6HR MIN TEMP:  62; 6HR MAX TEMP:  68;

FLORENCE       SUNNY     66  61  84 N9        30.05R
6HR MIN TEMP:  64; 6HR MAX TEMP:  68;

MYRTLE BEACH   SUNNY     68  61  77 N12       30.01R
N MYRTLE BEACH NOT AVBL

$$

GAZ063-065-086>088-099>101-113>116-118-119-134-136>141-150-271300-
...GEORGIA...

CITY           SKY/WX    TMP DP  RH WIND       PRES   REMARKS
SAVANNAH ARPT  SUNNY     69  64  84 N6        30.05R
6HR MIN TEMP:  66; 6HR MAX TEMP:  73;

HUNTER AAF     SUNNY     71  65  81 N5        30.02R
6HR MIN TEMP:  68; 6HR MAX TEMP:  74;

FORT STEWART   SUNNY     67  63  89 N3        30.03R
6HR MIN TEMP:  64; 6HR MAX TEMP:  70;

STATESBORO     NOT AVBL
SYLVANIA       SUNNY     68  66  94 N5        30.08R
CLAXTON        NOT AVBL
THOMSON        SUNNY     64  64 100 CALM      30.15R
AUGUSTA-BUSH   SUNNY     66  62  87 CALM      30.08R
6HR MIN TEMP:  59; 6HR MAX TEMP:  70;

AUGUSTA-DANIEL SUNNY     69  61  75 N8        30.09R
SWAINSBORO     FAIR      72  66  83 NE5       30.09R
VIDALIA          N/A     70  64  83 N5        30.07R
ALMA           SUNNY     68  66  93 CALM      30.05R
6HR MIN TEMP:  64; 6HR MAX TEMP:  68;

WAYCROSS       SUNNY     74  71  90 NE7       30.05R
JESUP            N/A     73  68  83 NE5       30.04S
BRUNSWICK      SUNNY     73  68  83 N6        30.03S
SAINT SIMONS   SUNNY     72  69  90 N9        30.01R
6HR MIN TEMP:  71; 6HR MAX TEMP:  78;


$$

SCZ027-028-034-036>038-045-046-048>050-GAZ119-141-271300-
...LAKE AND SUPPLEMENTAL COASTAL OBSERVATIONS...

STATION/POSITION TIME  TEMP    WIND        PRES    WAVE   SWELL
                       AIR SEA DIR/SP/G            HT/PER HT/PER/DIR
                 (UTC) (F)     (DEG/KT/KT) (MB)    (FT/S) (FT/S/D)
UPR LAKE MARION  NOT AVBL
WINYAH BAY       1200   68     360/  5     1016.0S
LAKE MURRAY      1100   66     360/  3/  5 1017.9R
ACE BASIN NERRS  1200   66      10/  2     1016.0S
FORT PULASKI     1200   73     360/  6/  8 1017.0R
SAPELO ISLAND    1100   72     360/  7     1016.0S

$$

ANZ835-935-AMZ111-154-330-350-352-354-374-450-454-472-271300-
...C-MAN AND BUOY OBSERVATIONS...

STATION/POSITION TIME  TEMP    WIND        PRES    WAVE   SWELL
                       AIR SEA DIR/SP/G            HT/PER HT/PER/DIR
                 (UTC) (F)     (DEG/KT/KT) (MB)    (FT/S) (FT/S/D)
FOLLY BEACH CMAN 1200   72     350/  9/ 12 1016.8R
BUOY 41004       1200   79 83   20/ 17/ 19 1014.5R   7/11   5/11
BUOY 41008       1200   80 84   20/ 14/ 16 1015.8R   5/ 8   3/110/ 8
5E ST. MARYS GA  1100      83                N/A     6/11   2/100/11
FRYING PAN BUOY  NOT AVBL
BUOY 41025       1200   79     360/ 21/ 25 1013.2R   8/ 8   5/150/13
CAPE LOOKOUT NC  1200   76      10/ 16/ 20 1014.4S
BUOY 41002       1146   80 81  360/ 27/ 33 1006.8R  13/12   8/ 80/12
BUOY 41010       1200   82 84   10/ 10/ 12 1013.1R   8/ 9   8/ 40/ 9
BUOY 41012       NOT AVBL
ST AUGUSTINE FL  1200   81      20/ 12/ 14 1016.0R
CAPERS NEARSHORE 1100   72      20/ 12/ 14   N/A
FRIPP NEARSHORE  NOT AVBL


$$



USA.gov is the U.S. government's official web portal to all federal, state and local government web resources and services.